Regional Weather Roundup
Issued by NWS Wilmington, NC

Home | Current Version | Previous Version | Text Only | Print | Product List | Glossary On
Versions: 1 2 3 4 5 6 7 8 9 10 11 12 13 14 15 16 17 18 19 20 21 22 23 24 25 26 27 28 29 30 31 32 33 34 35 36 37 38 39 40 41 42 43 44 45 46 47 48 49 50
000
ASUS42 KILM 300213
RWRILM
RWRILM
REGIONAL HOURLY WEATHER ROUNDUP
NATIONAL WEATHER SERVICE WILMINGTON NC
1000 PM EDT WED JUL 29 2015

NOTE: "FAIR" INDICATES FEW OR NO CLOUDS BELOW 12,000 FEET WITH NO
SIGNIFICANT WEATHER AND/OR OBSTRUCTIONS TO VISIBILITY.

...............WFO WILMINGTON COUNTY WARNING AREA...............

......COASTAL NC AND SC COUNTIES......

CITY           SKY/WX    TMP DP  RH WIND       PRES   REMARKS
WILMINGTON     CLEAR     78  73  84 E6        29.97R
N MYRTLE BEACH CLEAR     81  74  79 E3        29.97R
MYRTLE BEACH   CLEAR     81  72  74 E10       29.99R

......INLAND NC AND SC COUNTIES.......

CITY           SKY/WX    TMP DP  RH WIND       PRES   REMARKS
LUMBERTON      CLEAR     83  71  67 SE6       29.97R
ELIZABETHTOWN  CLEAR     80  69  68 CALM      29.99R
WHITEVILLE     CLEAR     78  71  77 CALM      29.98R
FLORENCE       CLEAR     83  70  64 S10       29.97R
DARLINGTON     CLEAR     82  66  57 SE7       29.98R

....................REST OF NORTH CAROLINA......................

.........EASTERN NC.........

CITY           SKY/WX    TMP DP  RH WIND       PRES   REMARKS
CAPE HATTERAS  PTCLDY    80  75  84 E10       29.98R
JACKSONVILLE   CLEAR     79  66  65 E6        29.98R
MOREHEAD CITY  CLEAR     78  76  93 NE5       29.97R
KENANSVILLE    CLEAR     74  69  84 CALM      30.00R
NEW BERN       CLEAR     79  71  76 E3        29.99R
ELIZABETH CITY CLEAR     79  71  76 SE3       30.00R

.........CENTRAL NC.........

CITY           SKY/WX    TMP DP  RH WIND       PRES   REMARKS
RALEIGH DURHAM PTCLDY    82  68  62 SE3       29.99R
ROCKY MOUNT    CLEAR     80  69  69 SE3       29.98R
ROANOKE RAPIDS NOT AVBL
FAYETTEVILLE   CLEAR     83  73  72 SE8       29.97R
HOFFMAN        PTCLDY    84  69  59 SE5       29.97R

.........WESTERN NC.........

CITY           SKY/WX    TMP DP  RH WIND       PRES   REMARKS
CHARLOTTE      MOCLDY    78  71  79 N3        30.00R
GREENSBORO     MOCLDY    79  72  79 CALM      30.00R
HICKORY        NOT AVBL
BOONE          NOT AVBL
ASHEVILLE      NOT AVBL

.....................REST OF SOUTH CAROLINA.....................

.........EASTERN SC.........

CITY           SKY/WX    TMP DP  RH WIND       PRES   REMARKS
CHARLESTON     PTCLDY    81  75  82 SE6       29.95S
BEAUFORT MCAS  PTCLDY    83  79  88 SE5       29.96R HX  94
HILTON HEAD    PTCLDY    82  79  89 NE3       29.97R HX  93

.........CENTRAL SC.........

CITY           SKY/WX    TMP DP  RH WIND       PRES   REMARKS
COLUMBIA       MOCLDY    87  72  60 W3        29.94R HX  93
ORANGEBURG     CLOUDY    86  70  58 S9        29.96R HX  90
SUMTER SHAW    PTCLDY    87  70  57 SE10      29.94R HX  91

.........WESTERN SC.........

CITY           SKY/WX    TMP DP  RH WIND       PRES   REMARKS
GREENVILLE     NOT AVBL
ROCK HILL      CLOUDY    80  75  84 CALM      30.00R
ANDERSON       PTCLDY    78  75  90 CALM      29.99R
CLEMSON        NOT AVBL
GREENWOOD      PTCLDY    79  75  87 CALM      30.00R


...................COASTAL AND OFFSHORE REPORTS..................

................LOCAL PIERS AND NC RESERVE................


STATION/POSITION TIME  SKY/WX   TEMP    WIND        PRES    VSBY
                                AIR SEA DIR/SP/G
                 (UTC)          (F)     (DEG/KT/KT) (MB)    (MI)
JOHNY MRCER PIER 0118            82                   N/A
NC RESRV MASNBRO NOT AVBL
OCEAN CREST PIER NOT AVBL
SPRINGMAID  PIER 0118            82                   N/A


................COASTAL AND OFFSHORE BUOYS................


STATION/POSITION TIME  SKY/WX   TEMP    WIND        PRES    VSBY
                                AIR SEA DIR/SP/G
                 (UTC)          (F)     (DEG/KT/KT) (MB)    (MI)
DIMNDSHOAL 41025 0150            82 85  100/ 14/ 16 1015.0
WVE H/P(F/S)=  4/ 6 WND WVE H/P(F/S)=  3/ 6 SWL H/P/D(F/S/D)=  2/ 90/ 9

CAPE LOOKOUT     0200            81      60/ 11/ 12 1014.3R
ONSLOW BAY 41036 NOT AVBL
5 WRITEBCH 41038 0108            81 82   80/ 14/ 19 1014.0R
MASONBORO  41110 0119               82                N/A
WVE H/P(F/S)=  4/ 5 WND WVE H/P(F/S)=  3/ 5

WILM HARBR 41108 0111               82                N/A
WVE H/P(F/S)=  3/ 6 WND WVE H/P(F/S)=  3/ 6

27WRITEBCH 41037 0100            78 82   60/ 12/ 16   N/A
FRYING PAN 41013 0150            84 84   60/ 10/ 12 1014.5R
WVE H/P(F/S)=  4/ 5 WND WVE H/P(F/S)=  2/ 5 SWL H/P/D(F/S/D)=  3/ 90/ 5

SUNST NRSH 41024 0108            82      80/ 10/ 16 1014.0R
CAPRS NRSH 41029 0108            82      80/  8/ 10 1014.2R
EDISTO     41004 0150            84 85   60/ 10/ 12 1013.7R
WVE H/P(F/S)=  3/ 5 WND WVE H/P(F/S)=  2/ 5 SWL H/P/D(F/S/D)=  2/ 7



..........OFFSHORE BUOYS BEYOND 100 NM OFFSHORE...........
.....IN A TRIANGLE---HAT TO BERMUDA TO BAHAMAS TO HAT.....


STATION/POSITION TIME  SKY/WX   TEMP    WIND        PRES    VSBY
                                AIR SEA DIR/SP/G
                 (UTC)          (F)     (DEG/KT/KT) (MB)    (MI)
150E HAT   41001 0200            81 83  160/ 12/ 14 1016.5R
W BERMUDA  41048 0150            80 81  240/  8/ 10 1019.1R
WVE H/P(F/S)=  5/ 5 WND WVE H/P(F/S)=  2/ 4 SWL H/P/D(F/S/D)=  5/200/ 5

ATLANTIC S 41049 0150            83 86  350/  2/  2 1021.9R
WVE H/P(F/S)=  4/ 9 WND WVE H/P(F/S)=  2/ 4 SWL H/P/D(F/S/D)=  5/100/ 9

E BAHAMAS  41046 0150            84 85  100/ 12/ 14 1019.5R
WVE H/P(F/S)=  3/ 8 WND WVE H/P(F/S)=  2/ 5 SWL H/P/D(F/S/D)=  3/120/ 8

NE BAHAMAS 41047 0150            84 85  170/  6/  8 1019.6R
WVE H/P(F/S)=  3/ 6 WND WVE H/P(F/S)=  2/ 4 SWL H/P/D(F/S/D)=  3/230/ 6

120E CANVRL41010 0120            83 84  240/ 17/ 21 1012.9R

END



USA.gov is the U.S. government's official web portal to all federal, state and local government web resources and services.